Miscellaneous Hydrologic Data Report
Issued by NWS (Baltimore/Washington) Sterling, VA
1 of 28 available versions  First Miscellaneous Hydrologic Data Report Previous Miscellaneous Hydrologic Data Report  Print this page Close this Window


000
ASUS41 KLWX 181810
RWRLWX

REGIONAL WEATHER ROUNDUP
NATIONAL WEATHER SERVICE BALTIMORE MD/WASHINGTON DC
200 PM EDT FRI APR 18 2014

Note: "FAIR" indicates few or no clouds below 12,000 feet
with no significant weather and/or obstructions to visibility.
 TC=TEMPERATURE CELSIUS

 * =Non NWS site. Station does not report precipitation (e.g. rain,
    snow, etc.), thunder, or fog.

DCZ001-MDZ009-015-VAZ040>042-051-053>054-181900-
WASHINGTON METRO

CITY           SKY/WX    TMP DP  RH WIND       PRES   REMARKS
WASHINGTON NAT CLOUDY    51  33  50 VRB3      30.43F
DULLES         PTSUNNY   50  32  50 VRB3      30.40F
ANDREWS AFB    CLOUDY    49  32  53 SE7       30.41F
FT BELVOIR     CLOUDY    52  32  47 VRB7      30.42F
QUANTICO       PTSUNNY   48  34  58 SE3       30.42F
COLLEGE PARK*  CLOUDY    52  34  50 SE5       30.41F
LEESBURG*      CLOUDY    52  36  54 S5        30.40F
MANASSAS*      PTSUNNY   52  36  54 CALM      30.40F
GAITHERSBURG*  PTSUNNY   48  32  53 SE8       30.43S

$$

MDZ006>007-011-014-181900-
BALTIMORE METRO

CITY           SKY/WX    TMP DP  RH WIND       PRES   REMARKS
BWI AIRPORT    CLOUDY    47  32  56 VRB6      30.42F
MD SCIENCE CTR   N/A     48  33  56 MISG      30.44F
MARTIN STATE   CLOUDY    48  36  61 E6        30.45F
ANNAPOLIS      PTSUNNY   46  34  62 SE5       30.44F
FORT MEADE*    PTSUNNY   46  32  57 SE8       30.44F

$$

MDZ012-015-019>023-181900-
MARYLAND EASTERN SHORE

CITY           SKY/WX    TMP DP  RH WIND       PRES   REMARKS
OCEAN CITY     CLOUDY    48  38  68 NE14      30.44F
SALISBURY      MOSUNNY   55  36  48 NE3       30.41F
BAY BRIDGE AP* PTSUNNY   46  34  61 NW6       30.44F
CAMBRIDGE*     MOSUNNY   54  36  50 N6        30.41F
EASTON*        CLOUDY    54  39  58 NE6       30.46F

$$

MDZ017>025-181900-
SOUTHERN MARYLAND

CITY           SKY/WX    TMP DP  RH WIND       PRES   REMARKS
PATUXENT RIVER CLOUDY    49  34  56 E5        30.42F
ST INIGOES     CLOUDY    50  35  56 N6        30.42F
LEONARDTOWN*   CLOUDY    48  34  57 NE3       30.43F

$$

MDZ003>005-181900-
NORTH CENTRAL MARYLAND

CITY           SKY/WX    TMP DP  RH WIND       PRES   REMARKS
FREDERICK*     SUNNY     52  37  58 SE5       30.43F
HAGERSTOWN APT MOSUNNY   49  32  52 VRB5      30.37F
WESTMINSTER*   PTSUNNY   52  34  50 SE8       30.38F

$$

MDZ501>502-181900-
WESTERN MARYLAND

CITY           SKY/WX    TMP DP  RH WIND       PRES   REMARKS
OAKLAND*       SUNNY     61  10  13 S5        30.28F
CUMBERLAND*    SUNNY     57  34  41 E5        30.37F

$$

VAZ025>031-181900-
SHENANDOAH VALLEY

CITY           SKY/WX    TMP DP  RH WIND       PRES   REMARKS
WINCHESTER*    PTSUNNY   52  36  54 SE6       30.37S
STAUNTON*      MOSUNNY   55  35  47 W5        30.36F

$$

WVZ021-048>050-054>055-181900-
EASTERN WEST VIRGINIA PANHANDLE

CITY           SKY/WX    TMP DP  RH WIND       PRES   REMARKS
MARTINSBURG    PTSUNNY   51  33  50 VRB6      30.39F
PETERSBURG*    PTSUNNY   62  40  43 CALM      30.32F

$$

VAZ036>039-050-181900-
CENTRAL FOOTHILLS

CITY           SKY/WX    TMP DP  RH WIND       PRES   REMARKS
CHARLOTTESVILL SUNNY     56  37  49 SE8       30.37F
CULPEPER*      MOSUNNY   55  36  47 SW3       30.40F

$$

VAZ055>057-181900-
NORTH AND CENTRAL PIEDMONT

CITY           SKY/WX    TMP DP  RH WIND       PRES   REMARKS
FREDERICKSBRG* MOSUNNY   54  36  50 S6        30.40F
STAFFORD*      MOSUNNY   52  36  54 CALM      30.45F

$$

NCZ024-NYZ072-PAZ021-071-VAZ022-071-181900-
OTHER REGIONAL OBSERVATIONS

CITY           SKY/WX    TMP DP  RH WIND       PRES   REMARKS
NEW YORK CITY  CLOUDY    47  29  49 VRB6      30.47F
PHILADELPHIA   CLOUDY    50  30  46 VRB3      30.44F
PITTSBURGH     CLOUDY    62  28  27 S3        30.26F
ROANOKE        CLOUDY    51  37  58 S3        30.39F
RICHMOND       CLOUDY    52  33  48 CALM      30.41F
RALEIGH        CLOUDY    59  39  47 N8        30.36F

$$

ANZ530>537-181900-
MARINE OBSERVATIONS

STATION/POSITION TIME  TEMP    WIND        PRES
                       AIR SEA DIR/SP/G
                 (UTC) (F)     (DEG/KT/KT) (MB)
THOMAS PT LIGHT  1800   43 52  320/  3/  3 1031.2F
BALT KEY BRIDGE  1800   43     120/  5/  7 1030.9F
COVE POINT       1800   43     360/  6/  9 1030.3F
LEWISETTA        1800   45 53   50/  1/  2 1030.3F
SOLOMONS ISLAND  1800      52                N/A
PINEY POINT      1800          200/  7/  9   N/A

$$


Close this window


The National Weather Service prepares its forecasts and other services in collaboration with agencies like the US Geological Survey, US Bureau of Reclamation, US Army Corps of Engineers, Natural Resource Conservation Service, National Park Service, ALERT Users Group, Bureau of Indian Affairs, and many state and local emergency managers across the country. For details, please click here.

National Weather Service
(Baltimore/Washington) Sterling Weather Forecast Office
43858 Weather Service Rd.
Sterling, VA 20166
(703) 996-2200
Ask Questions/Webmaster
Page last modified: 1-Jan-1970 12:00 AM
Disclaimer
Credits
Glossary
Privacy Policy
About Us
Career Opportunities